Weather History for Big Bear City, CA

Change the Weather History Date:

Thursday, February 14, 2013

  Actual Average (KBUO) Record (KBUO)
Temperature  
Mean Temperature 30 °F -  
Max Temperature 44 °F 57 °F 68 °F (1997)
Min Temperature 17 °F 40 °F 35 °F (2001)
Degree Days  
Heating Degree Days 34    
Moisture  
Dew Point 16 °F    
Average Humidity 59    
Maximum Humidity 86    
Minimum Humidity 29    
Precipitation  
Precipitation 0.00 in - - ()
Sea Level Pressure  
Sea Level Pressure 30.27 in    
Wind  
Wind Speed 3 mph (ENE)    
Max Wind Speed 14 mph    
Max Gust Speed 20 mph    
Visibility 10 miles    
Events      
Averages and records for this station are not official NWS values.
T = Trace of Precipitation, MM = Missing Value Source: NWS Daily Summary

Daily Weather History Graph

Daily Weather History Graph

Search for Another Location

Airport:

Trip Planner

Search our weather history database for the weather conditions in past years. The results will help you decide how hot, cold, wet, or windy it might be!

Date:

Astronomy

Feb. 14, 2013 Rise Set
Actual Time 6:33 AM PST 5:30 PM PST
Civil Twilight 6:07 AM PST 5:56 PM PST
Nautical Twilight 5:38 AM PST 6:25 PM PST
Astronomical Twilight 5:08 AM PST 6:54 PM PST
Moon 8:52 AM PST (2/14) 10:21 PM PST (2/14)
Length of Visible Light 11h 48m
Length of Day
10h 57m
Waxing Crescent, 22% of the Moon is Illuminated
Feb 14
Waxing Crescent
Feb 17
First Quarter
Feb 25
Full
Mar 4
Last Quarter
Mar 11
New

Hourly Weather History & Observations

Time (PST) Temp. Windchill Dew Point Humidity Pressure Visibility Wind Dir Wind Speed Gust Speed Precip Events Conditions
12:15 AM 23.0 °F - 17.6 °F 80% 30.26 in 10.0 mi Calm Calm - N/A   Clear
12:35 AM 21.2 °F - 15.8 °F 80% 30.26 in 10.0 mi Calm Calm - N/A   Clear
12:55 AM 23.0 °F - 17.6 °F 80% 30.26 in 10.0 mi Calm Calm - N/A   Clear
1:15 AM 21.2 °F - 17.6 °F 86% 30.26 in 10.0 mi Calm Calm - N/A   Clear
1:35 AM 21.2 °F - 15.8 °F 80% 30.26 in 10.0 mi Calm Calm - N/A   Clear
1:55 AM 21.2 °F - 15.8 °F 80% 30.25 in 10.0 mi Calm Calm - N/A   Clear
2:15 AM 21.2 °F - 15.8 °F 80% 30.25 in 10.0 mi Calm Calm - N/A   Clear
2:35 AM 21.2 °F - 15.8 °F 80% 30.25 in 10.0 mi Calm Calm - N/A   Clear
2:55 AM 21.2 °F - 15.8 °F 80% 30.24 in 10.0 mi Calm Calm - N/A   Clear
3:15 AM 21.2 °F - 15.8 °F 80% 30.23 in 10.0 mi Calm Calm - N/A   Clear
3:35 AM 19.4 °F 14.3 °F 14.0 °F 80% 30.23 in 10.0 mi ENE 3.5 mph - N/A   Clear
3:55 AM 19.4 °F - 14.0 °F 80% 30.23 in 7.0 mi Calm Calm - N/A   Clear
4:15 AM 19.4 °F - 14.0 °F 80% 30.23 in 7.0 mi Calm Calm - N/A   Clear
4:35 AM 19.4 °F - 14.0 °F 80% 30.23 in 10.0 mi Calm Calm - N/A   Clear
4:55 AM 19.4 °F - 14.0 °F 80% 30.24 in 10.0 mi Calm Calm - N/A   Clear
5:15 AM 19.4 °F - 14.0 °F 80% 30.24 in 10.0 mi Calm Calm - N/A   Clear
5:35 AM 19.4 °F - 14.0 °F 80% 30.24 in 10.0 mi Calm Calm - N/A   Clear
5:55 AM 19.4 °F - 14.0 °F 80% 30.24 in 10.0 mi Calm Calm - N/A   Clear
6:15 AM 19.4 °F - 14.0 °F 80% 30.25 in 10.0 mi Calm Calm - N/A   Clear
6:35 AM 19.4 °F - 14.0 °F 80% 30.25 in 10.0 mi Calm Calm - N/A   Clear
6:55 AM 17.6 °F 12.3 °F 14.0 °F 86% 30.25 in 7.0 mi East 3.5 mph - N/A   Clear
7:15 AM 19.4 °F 14.3 °F 14.0 °F 80% 30.26 in 10.0 mi East 3.5 mph - N/A   Clear
7:35 AM 21.2 °F 14.9 °F 15.8 °F 80% 30.26 in 10.0 mi East 4.6 mph - N/A   Clear
7:55 AM 23.0 °F 15.8 °F 15.8 °F 74% 30.26 in 10.0 mi East 5.8 mph - N/A   Clear
8:15 AM 26.6 °F 20.0 °F 17.6 °F 69% 30.27 in 10.0 mi ENE 5.8 mph - N/A   Clear
8:35 AM 30.2 °F 23.4 °F 19.4 °F 64% 30.27 in 10.0 mi East 6.9 mph - N/A   Clear
8:55 AM 37.4 °F 32.8 °F 19.4 °F 48% 30.27 in 10.0 mi ESE 5.8 mph - N/A   Clear
9:15 AM 41.0 °F 35.8 °F 19.4 °F 42% 30.28 in 10.0 mi East 8.1 mph - N/A   Clear
9:35 AM 41.0 °F 34.7 °F 19.4 °F 42% 30.28 in 10.0 mi East 10.4 mph 19.6 mph N/A   Clear
9:55 AM 42.8 °F 37.5 °F 17.6 °F 36% 30.30 in 10.0 mi East 9.2 mph - N/A   Clear
10:15 AM 42.8 °F 37.0 °F 17.6 °F 36% 30.30 in 10.0 mi ENE 10.4 mph - N/A   Clear
10:35 AM 42.8 °F 38.6 °F 17.6 °F 36% 30.30 in 10.0 mi ENE 6.9 mph - N/A   Clear
10:55 AM 42.8 °F 37.5 °F 15.8 °F 34% 30.30 in 10.0 mi ENE 9.2 mph - N/A   Clear
11:15 AM 42.8 °F 37.5 °F 17.6 °F 36% 30.30 in 10.0 mi East 9.2 mph - N/A   Clear
11:35 AM 42.8 °F 37.5 °F 15.8 °F 34% 30.28 in 10.0 mi East 9.2 mph - N/A   Clear
11:55 AM 44.6 °F 38.8 °F 15.8 °F 31% 30.28 in 10.0 mi East 11.5 mph - N/A   Clear
12:15 PM 44.6 °F 39.2 °F 15.8 °F 31% 30.27 in 10.0 mi ENE 10.4 mph - N/A   Clear
12:35 PM 42.8 °F 36.6 °F 17.6 °F 36% 30.26 in 10.0 mi East 11.5 mph 19.6 mph N/A   Clear
12:55 PM 44.6 °F 39.2 °F 17.6 °F 34% 30.25 in 10.0 mi NE 10.4 mph 16.1 mph N/A   Clear
1:15 PM 44.6 °F 38.8 °F 17.6 °F 34% 30.24 in 10.0 mi NE 11.5 mph 18.4 mph N/A   Clear
1:35 PM 42.8 °F 37.5 °F 15.8 °F 34% 30.24 in 10.0 mi NNE 9.2 mph 19.6 mph N/A   Clear
1:55 PM 44.6 °F 38.8 °F 15.8 °F 31% 30.24 in 10.0 mi NE 11.5 mph 17.3 mph N/A   Clear
2:15 PM 44.6 °F 38.1 °F 15.8 °F 31% 30.23 in 10.0 mi ENE 13.8 mph 18.4 mph N/A   Clear
2:35 PM 42.8 °F 38.0 °F 14.0 °F 31% 30.24 in 10.0 mi NE 8.1 mph - N/A   Clear
2:55 PM 44.6 °F 39.7 °F 15.8 °F 31% 30.23 in 10.0 mi ENE 9.2 mph - N/A   Clear
3:15 PM 44.6 °F 39.7 °F 14.0 °F 29% 30.24 in 10.0 mi NNE 9.2 mph - N/A   Clear
3:35 PM 42.8 °F 37.0 °F 14.0 °F 31% 30.23 in 10.0 mi ENE 10.4 mph 19.6 mph N/A   Clear
3:55 PM 42.8 °F 37.5 °F 14.0 °F 31% 30.24 in 10.0 mi East 9.2 mph - N/A   Clear
4:15 PM 42.8 °F 37.0 °F 14.0 °F 31% 30.24 in 10.0 mi ENE 10.4 mph - N/A   Clear
4:35 PM 42.8 °F 38.0 °F 14.0 °F 31% 30.24 in 10.0 mi ENE 8.1 mph - N/A   Clear
4:55 PM 41.0 °F 34.7 °F 12.2 °F 31% 30.24 in 10.0 mi ENE 10.4 mph - N/A   Clear
5:15 PM 39.2 °F 34.2 °F 14.0 °F 36% 30.24 in 10.0 mi East 6.9 mph - N/A   Clear
5:35 PM 37.4 °F 33.8 °F 14.0 °F 38% 30.24 in 10.0 mi East 4.6 mph - N/A   Clear
5:55 PM 33.8 °F 30.8 °F 19.4 °F 56% 30.25 in 10.0 mi ESE 3.5 mph - N/A   Clear
6:15 PM 32.0 °F - 19.4 °F 60% 30.26 in 10.0 mi Calm Calm - N/A   Clear
6:35 PM 32.0 °F - 17.6 °F 55% 30.27 in 10.0 mi Calm Calm - N/A   Clear
6:55 PM 30.2 °F - 17.6 °F 60% 30.27 in 10.0 mi Calm Calm - N/A   Clear
7:15 PM 30.2 °F - 19.4 °F 64% 30.28 in 10.0 mi Calm Calm - N/A   Clear
7:35 PM 28.4 °F - 19.4 °F 69% 30.29 in 10.0 mi Calm Calm - N/A   Clear
7:55 PM 28.4 °F - 19.4 °F 69% 30.30 in 10.0 mi Calm Calm - N/A   Clear
8:15 PM 28.4 °F - 19.4 °F 69% 30.30 in 10.0 mi Calm Calm - N/A   Clear
8:35 PM 28.4 °F - 17.6 °F 64% 30.30 in 10.0 mi Calm Calm - N/A   Clear
8:55 PM 26.6 °F - 17.6 °F 69% 30.31 in 10.0 mi Calm Calm - N/A   Clear
9:15 PM 26.6 °F - 17.6 °F 69% 30.31 in 10.0 mi Calm Calm - N/A   Clear
9:35 PM 26.6 °F - 17.6 °F 69% 30.31 in 10.0 mi Calm Calm - N/A   Clear
9:55 PM 26.6 °F - 17.6 °F 69% 30.32 in 10.0 mi Calm Calm - N/A   Clear
10:15 PM 24.8 °F - 17.6 °F 74% 30.32 in 10.0 mi Calm Calm - N/A   Clear
10:35 PM 24.8 °F - 17.6 °F 74% 30.33 in 10.0 mi Calm Calm - N/A   Clear
10:55 PM 24.8 °F 20.5 °F 17.6 °F 74% 30.33 in 10.0 mi East 3.5 mph - N/A   Clear
11:15 PM 24.8 °F - 17.6 °F 74% 30.32 in 10.0 mi Calm Calm - N/A   Clear
11:35 PM 24.8 °F - 17.6 °F 74% 30.33 in 10.0 mi Calm Calm - N/A   Clear
11:55 PM 23.0 °F - 17.6 °F 80% 30.32 in 10.0 mi Calm Calm - N/A   Clear